Meteo Giornale » Osservazioni meteo Cile » Crucero Purranque

ore: 09:00 - Osservazioni Meteo Crucero Purranque
Lat. 40° 55' S Lon. 73° 21' W Alt. 140 metri s.l.m.

foschia

6 °C

Foschia

Temp. 24 Ore

6 °C

8 °C

Nord

11.1 Km/h

Dew point 6 °C

Umidità 100 %

Visibilità  3 Km

Il sole sorge alle ore 07:17

Il sole tramonta alle ore 18:29

Data e Ora Cielo e Fenomeni T °C DP °C Um. % Pres. hPa Vis. km Vento km/h
Oggi h: 09:00 foschia Foschia 6 6 100 1017 3 N 11.1
Oggi h: 07:00 coperto Coperto 6 5 93 1017 11 N/NO 13
Oggi h: 06:00 coperto Coperto 6 5 93 1018 11 N/NO 7.4
Oggi h: 05:00 molto_nuvoloso Molto Nuvoloso 6 5 93 1018 11 N 5.5
Oggi h: 04:00 molto_nuvoloso Molto Nuvoloso 6 5 93 1018 11 N 9.3
Oggi h: 03:00 poco_nuvoloso Poco Nuvoloso 6 5 93 1019 11 N 11.1
Oggi h: 02:00 molto_nuvoloso Molto Nuvoloso 6 5 93 1019 11 N 13
Oggi h: 01:00 nuvoloso Nuvoloso 6 5 93 1019 11 N 13
Oggi h: 00:00 sereno Sereno 6 5 93 1020 10 N 9.3
Ieri h: 23:00 sereno Sereno 6 5 93 1020 10 N 11.1
Ieri h: 22:00 sereno Sereno 6 5 93 1020 10 N/NO 7.4
Ieri h: 21:00 sereno Sereno 6 5 93 1020 10 NO 9.3
Ieri h: 19:00 coperto Coperto 7 4 81 1019 0 O/NO 11.1
Ieri h: 18:00 coperto Coperto 6 5 93 1019 0 N/NO 14.8
Ieri h: 17:00 nuvoloso_piovaschi Pioggia 7 5 87 1018 6 N/NO 16.7
Ieri h: 16:00 nuvoloso_piovaschi Pioggia 7 5 87 1018 9 O 20.3
Ieri h: 15:00 nuvoloso_piovaschi Pioggia 8 6 87 1017 10 N/NO 20.3
Ieri h: 14:00 molto_nuvoloso Pioggia nelle vicinanze 8 6 87 1018 8 N/NO 18.5
Ieri h: 13:00 molto_nuvoloso Molto Nuvoloso 7 5 87 1018 10 NO 16.7
Ieri h: 12:00 molto_nuvoloso Molto Nuvoloso 7 4 81 1018 10 O/NO 22.2
Ieri h: 11:00 molto_nuvoloso Molto Nuvoloso 8 5 81 1018 10 N/NO 24
Ieri h: 10:00 sereno Sereno 6 5 93 1018 10 N/NO 18.5